Weather History for Whiting Fld NAS, FL

Change the Weather History Date:

Thursday, February 21, 2013

  Actual Average Record
Temperature  
Mean Temperature 52 °F -  
Max Temperature 66 °F 64 °F 81 °F (2011)
Min Temperature 37 °F 46 °F 28 °F (2009)
Degree Days  
Heating Degree Days 14    
Growing Degree Days 2 (Base 50)    
Moisture  
Dew Point 41 °F    
Average Humidity 62    
Maximum Humidity 87    
Minimum Humidity 32    
Precipitation  
Precipitation 0.00 in - - ()
Sea Level Pressure  
Sea Level Pressure 29.99 in    
Wind  
Wind Speed 7 mph (ESE)    
Max Wind Speed 18 mph    
Max Gust Speed 24 mph    
Visibility 10 miles    
Events      
Averages and records for this station are not official NWS values.
T = Trace of Precipitation, MM = Missing Value Source: NWS Daily Summary

Daily Weather History Graph

Daily Weather History Graph

Search for Another Location

Airport:

Trip Planner

Search our weather history database for the weather conditions in past years. The results will help you decide how hot, cold, wet, or windy it might be!

Date:

Astronomy

Feb. 21, 2013 Rise Set
Actual Time 6:22 AM CST 5:40 PM CST
Civil Twilight 5:58 AM CST 6:05 PM CST
Nautical Twilight 5:30 AM CST 6:33 PM CST
Astronomical Twilight 5:02 AM CST 7:01 PM CST
Moon 2:05 PM CST (2/21) 3:16 AM CST (2/21)
Length of Visible Light 12h 07m
Length of Day
11h 18m
Waxing Gibbous, 84% of the Moon is Illuminated
Feb 21
Waxing Gibbous
Feb 25
Full
Mar 4
Last Quarter
Mar 11
New
Mar 19
First Quarter

Hourly Weather History & Observations

Time (CST) Temp. Windchill Dew Point Humidity Pressure Visibility Wind Dir Wind Speed Gust Speed Precip Events Conditions
12:56 AM 37.9 °F 35.5 °F 28.9 °F 70% 30.07 in 10.0 mi North 3.5 mph - N/A   Clear
1:56 AM 37.9 °F 34.4 °F 28.0 °F 68% 30.06 in 10.0 mi North 4.6 mph - N/A   Clear
2:56 AM 39.0 °F 35.7 °F 27.0 °F 62% 30.01 in 10.0 mi NE 4.6 mph - N/A   Clear
3:56 AM 41.0 °F 39.0 °F 27.0 °F 57% 30.02 in 10.0 mi NE 3.5 mph - N/A   Clear
4:56 AM 39.0 °F 36.8 °F 28.0 °F 65% 30.04 in 10.0 mi NNE 3.5 mph - N/A   Clear
5:56 AM 42.1 °F 38.4 °F 28.0 °F 58% 30.04 in 10.0 mi NE 5.8 mph - N/A   Mostly Cloudy
6:56 AM 43.0 °F 41.3 °F 28.9 °F 58% 30.06 in 10.0 mi East 3.5 mph - N/A   Mostly Cloudy
7:56 AM 46.0 °F 42.5 °F 30.0 °F 54% 30.07 in 10.0 mi East 6.9 mph - N/A   Mostly Cloudy
8:23 AM 48.2 °F - 30.2 °F 50% 30.12 in 10.0 mi East 8.1 mph - N/A   Mostly Cloudy
8:56 AM 48.9 °F - 30.0 °F 48% 30.08 in 10.0 mi East 10.4 mph - N/A   Overcast
9:56 AM 53.1 °F - 30.9 °F 43% 30.07 in 10.0 mi ESE 9.2 mph - N/A   Mostly Cloudy
10:56 AM 60.1 °F - 32.0 °F 35% 30.03 in 10.0 mi ESE 12.7 mph - N/A   Mostly Cloudy
11:56 AM 66.9 °F - 36.0 °F 32% 30.00 in 10.0 mi SE 11.5 mph - N/A   Mostly Cloudy
12:56 PM 64.9 °F - 39.0 °F 39% 29.96 in 10.0 mi ESE 6.9 mph - N/A   Mostly Cloudy
1:56 PM 66.9 °F - 43.0 °F 42% 29.94 in 10.0 mi SE 13.8 mph - N/A   Mostly Cloudy
2:56 PM 66.9 °F - 46.9 °F 49% 29.93 in 10.0 mi SSE 18.4 mph - N/A   Mostly Cloudy
3:56 PM 64.9 °F - 52.0 °F 63% 29.91 in 10.0 mi SSE 15.0 mph 24.2 mph N/A   Mostly Cloudy
4:56 PM 64.0 °F - 55.0 °F 73% 29.91 in 10.0 mi SE 11.5 mph - N/A   Mostly Cloudy
5:56 PM 62.1 °F - 55.9 °F 80% 29.90 in 10.0 mi SE 9.2 mph - N/A   Overcast
6:56 PM 61.0 °F - 55.9 °F 83% 29.92 in 10.0 mi SE 8.1 mph - N/A   Overcast
7:56 PM 62.1 °F - 57.0 °F 84% 29.92 in 9.0 mi SSE 10.4 mph - N/A   Overcast
8:56 PM 63.0 °F - 59.0 °F 87% 29.91 in 9.0 mi SSE 16.1 mph - N/A   Overcast
9:56 PM 64.9 °F - 60.1 °F 84% 29.91 in 8.0 mi SSE 15.0 mph - N/A   Overcast
10:56 PM 66.0 °F - 61.0 °F 84% 29.90 in 8.0 mi SSE 12.7 mph - N/A   Overcast
11:56 PM 66.9 °F - 62.1 °F 84% 29.89 in 8.0 mi South 11.5 mph - N/A   Overcast